Weather History for Fairbanks, AK

Change the Weather History Date:

Saturday, January 18, 2014

  Actual Average Record
Temperature  
Mean Temperature 14 °F -9 °F  
Max Temperature 19 °F 0 °F 38 °F (1965)
Min Temperature 8 °F -18 °F -61 °F (1906)
Degree Days  
Heating Degree Days 51 74  
Month to date heating degree days 1159 1316  
Since 1 July heating degree days 6843 7588  
Cooling Degree Days 0 0  
Month to date cooling degree days 0 0  
Year to date cooling degree days 0 0  
Moisture  
Dew Point 4 °F    
Average Humidity 74    
Maximum Humidity 77    
Minimum Humidity 61    
Precipitation  
Precipitation 0.01 in 0.02 in 0.87 in (1937)
Month to date precipitation 0.14 0.36  
Year to date precipitation 0.14 0.36  
Snow  
Snow 0.20 in 0.30 in 8.60 in (2000)
Month to date snowfall 2.5 6.4  
Since 1 July snowfall 35.8 44.3  
Snow Depth 18.00 in    
Sea Level Pressure  
Sea Level Pressure 29.36 in    
Wind  
Wind Speed 3 mph (South)    
Max Wind Speed 7 mph    
Max Gust Speed -    
Visibility 8 miles    
Events Snow    
T = Trace of Precipitation, MM = Missing Value Source: NWS Daily Summary

Daily Weather History Graph

Daily Weather History Graph

Search for Another Location

Airport:

Trip Planner

Search our weather history database for the weather conditions in past years. The results will help you decide how hot, cold, wet, or windy it might be!

Date:

Astronomy

Jan. 18, 2014 Rise Set
Actual Time 10:18 AM AKST 3:46 PM AKST
Civil Twilight 9:10 AM AKST 4:54 PM AKST
Nautical Twilight 8:04 AM AKST 5:59 PM AKST
Astronomical Twilight 7:06 AM AKST 6:58 PM AKST
Moon 8:09 PM AKST (1/18) 9:59 AM AKST (1/18)
Length of Visible Light 7h 44m
Length of Day
5h 28m
Waning Gibbous, 94% of the Moon is Illuminated
Jan 18
Waning Gibbous
Jan 23
Last Quarter
Jan 30
New
Feb 6
First Quarter
Feb 14
Full

Hourly Weather History & Observations

Time (AKST) Temp. Windchill Dew Point Humidity Pressure Visibility Wind Dir Wind Speed Gust Speed Precip Events Conditions
12:53 AM 10.9 °F 1.4 °F 5.0 °F 77% 29.10 in 10.0 mi SSW 5.8 mph - N/A   Mostly Cloudy
1:53 AM 10.9 °F 2.9 °F 5.0 °F 77% 29.08 in 10.0 mi WSW 4.6 mph - N/A   Mostly Cloudy
3:53 AM 12.0 °F - 6.1 °F 77% 29.09 in 10.0 mi Calm Calm - N/A   Mostly Cloudy
4:53 AM 19.0 °F 11.1 °F 12.0 °F 74% 29.07 in 10.0 mi North 5.8 mph - N/A   Overcast
5:53 AM 12.9 °F - 7.0 °F 77% 29.08 in 10.0 mi Calm Calm - N/A   Partly Cloudy
6:53 AM 10.9 °F 0.2 °F 5.0 °F 77% 29.09 in 10.0 mi South 6.9 mph - N/A   Partly Cloudy
7:53 AM 10.9 °F - 5.0 °F 77% 29.09 in 10.0 mi Calm Calm - N/A   Partly Cloudy
8:53 AM 10.9 °F 2.9 °F 5.0 °F 77% 29.11 in 10.0 mi East 4.6 mph - N/A   Mostly Cloudy
9:53 AM 10.9 °F - 5.0 °F 77% 29.13 in 10.0 mi Calm Calm - N/A   Mostly Cloudy
10:53 AM 10.9 °F - 5.0 °F 77% 29.20 in 10.0 mi Calm Calm - N/A   Mostly Cloudy
11:53 AM 10.0 °F - 3.9 °F 76% 29.24 in 10.0 mi Calm Calm - N/A   Mostly Cloudy
12:53 PM 10.9 °F 4.7 °F 3.9 °F 73% 29.27 in 10.0 mi South 3.5 mph - N/A   Mostly Cloudy
1:53 PM 10.9 °F - 3.9 °F 73% 29.31 in 10.0 mi Calm Calm - N/A   Mostly Cloudy
2:53 PM 10.0 °F - 3.0 °F 73% 29.35 in 10.0 mi Calm Calm - N/A   Mostly Cloudy
3:53 PM 10.9 °F - 3.9 °F 73% 29.39 in 10.0 mi Calm Calm - N/A   Mostly Cloudy
4:53 PM 10.0 °F 0.4 °F 3.0 °F 73% 29.45 in 10.0 mi SW 5.8 mph - N/A   Mostly Cloudy
5:53 PM 10.9 °F 4.7 °F 3.9 °F 73% 29.50 in 10.0 mi SW 3.5 mph - N/A   Mostly Cloudy
6:53 PM 8.1 °F 1.4 °F 1.9 °F 76% 29.56 in 10.0 mi South 3.5 mph - N/A   Mostly Cloudy
7:53 PM 9.0 °F 2.4 °F 3.0 °F 77% 29.61 in 5.0 mi ESE 3.5 mph - N/A Snow Light Snow
8:09 PM 9.0 °F - 3.0 °F 77% 29.57 in 2.0 mi Calm Calm - N/A Snow Light Snow
8:40 PM 9.0 °F 0.6 °F 3.0 °F 77% 29.59 in 1.5 mi SE 4.6 mph - N/A Snow Light Snow
8:49 PM 8.6 °F - 1.4 °F 73% 29.59 in 2.0 mi Calm Calm - N/A Snow Light Snow
8:53 PM 9.0 °F - 1.9 °F 73% 29.64 in 3.0 mi Calm Calm - N/A Snow Light Snow
9:34 PM 9.0 °F - 3.0 °F 77% 29.63 in 7.0 mi Calm Calm - N/A Snow Light Snow
9:53 PM 9.0 °F - 3.0 °F 77% 29.69 in 7.0 mi Calm Calm - N/A Snow Light Snow
10:53 PM 9.0 °F - 3.0 °F 77% 29.74 in 7.0 mi Calm Calm - N/A Snow Light Snow
11:53 PM 10.0 °F - 3.9 °F 76% 29.77 in 10.0 mi Calm Calm - N/A   Overcast